Temperature
30 30 30 30 31 31 31 30 28 27 28 26 24 22 22 22 23 23 23 23 22 21 21 20 20 20 19 19 19 19 18 18 18 18 18 18 18 18 18 17 17 17 16 16
31 30 31 32 32 31 30 29 28 28 28 27 24 23 23 23 24 23 23 23 22 21 21 21 20 20 19 19 19 19 18 18 18 18 18 18 18 18 17 17 17 17 16 16
31 31 32 32 31 30 30 29 28 27 28 26 24 22 22 23 24 24 24 23 23 22 21 21 21 20 20 19 19 19 18 18 18 18 17 17 17 17 17 17 17 16 16 15
31 32 32 31 31 30 29 30 29 28 27 24 24 22 22 23 24 24 24 24 23 23 22 22 21 21 20 20 19 19 18 18 18 17 17 17 17 16 16 16 16 16 16 15
30 31 31 31 31 31 30 30 28 27 26 25 25 24 23 23 24 24 24 24 24 23 23 22 22 21 21 20 19 19 18 18 17 17 17 16 16 16 16 16 16 15 15 15
31 32 31 31 32 31 31 28 26 24 23 22 25 25 24 24 24 25 25 24 24 24 23 22 22 21 21 20 20 19 18 18 17 16 16 16 15 15 15 15 15 15 15 15
29 29 29 29 30 30 29 27 23 21 20 21 25 26 25 26 27 26 25 25 24 24 23 23 22 22 21 21 20 19 18 17 17 16 16 15 15 15 15 15 14 14 14 14
28 26 27 28 29 29 29 28 25 24 23 24 26 26 27 28 28 27 26 25 24 24 24 23 23 22 22 21 20 19 18 17 17 16 16 15 15 15 14 14 14 14 14 14
28 27 28 29 31 31 29 29 29 27 26 24 26 27 27 28 28 27 26 25 25 25 24 24 23 22 22 21 20 19 18 17 16 16 15 15 15 14 14 14 14 13 13 13
30 29 30 31 31 31 30 30 30 28 26 25 24 25 26 27 27 27 27 27 26 26 25 25 24 23 22 21 20 19 18 17 16 16 15 16 15 14 14 13 13 13 13 13
31 30 30 30 29 28 29 29 29 29 28 26 23 23 27 27 28 28 28 27 27 26 26 25 24 23 21 21 20 19 18 17 16 16 15 15 14 14 13 13 13 13 12 12
31 30 28 28 29 29 30 29 29 27 27 28 26 26 29 29 29 29 28 27 27 26 25 24 23 22 21 21 20 19 18 17 17 16 15 15 14 14 13 13 13 12 12 12
30 29 27 26 25 25 27 29 29 29 29 28 26 26 28 29 29 29 28 28 27 26 25 24 23 22 21 20 19 19 18 18 17 16 16 15 14 14 13 13 13 12 12 12
30 29 27 25 24 24 26 28 29 29 28 27 26 26 27 29 29 29 28 27 27 25 25 24 23 22 21 20 19 18 18 17 17 16 15 15 14 14 13 13 12 12 12 12
29 28 28 28 28 28 28 29 29 29 29 28 27 27 28 29 29 28 28 27 26 25 24 23 22 21 20 19 19 18 18 17 16 16 15 15 14 14 13 13 12 12 12 12
28 28 28 28 29 29 29 30 30 30 30 30 29 29 29 29 29 28 28 27 26 25 24 23 22 21 20 19 19 18 17 17 16 15 15 15 14 14 13 13 12 12 12 12
28 28 27 27 29 29 28 30 30 30 30 30 29 29 29 29 28 28 27 27 26 25 24 24 22 21 20 19 19 18 17 17 16 16 15 15 14 14 13 13 13 12 12 12
28 27 27 27 27 26 28 30 30 30 30 30 30 30 29 29 28 27 27 26 26 25 24 23 22 21 20 19 19 18 17 17 16 16 15 15 14 14 13 13 12 12 12 12
27 27 27 27 26 27 28 28 28 28 28 30 30 30 29 29 28 27 26 26 25 25 24 23 22 22 21 20 19 18 17 17 17 16 16 15 14 14 13 13 12 12 12 12
26 26 26 27 26 25 26 27 27 27 26 28 29 28 28 28 27 27 26 25 25 24 23 23 22 21 20 20 19 18 17 17 17 16 16 15 14 14 13 13 13 12 12 12
23 25 26 26 26 26 26 26 26 24 24 26 27 27 27 27 26 26 25 25 24 23 23 22 22 21 20 19 19 18 17 17 16 16 15 15 14 14 14 13 13 12 12 12
24 25 25 25 24 24 24 25 23 22 23 25 26 27 26 26 26 25 25 24 23 23 22 22 21 20 20 19 18 18 17 17 16 16 15 15 14 14 14 13 13 12 12 12
26 26 26 25 23 22 21 22 22 23 23 24 25 26 26 25 25 25 24 24 23 23 22 21 21 20 19 18 18 17 17 17 16 16 15 15 15 14 14 13 13 12 12 12
26 26 26 25 23 22 22 22 23 23 23 24 25 25 25 25 25 24 23 23 22 22 21 21 20 19 19 18 18 17 17 16 16 16 15 15 14 14 14 13 13 13 13 13
27 26 25 24 24 23 22 22 23 23 23 24 24 24 24 24 23 23 22 22 21 21 21 20 20 19 19 18 17 17 17 16 16 15 15 14 14 14 14 14 14 14 13 13
27 26 25 24 23 23 22 22 22 23 23 23 22 22 22 22 22 21 21 20 20 20 20 19 19 19 18 18 17 17 16 16 15 15 14 14 14 14 14 14 14 14 14 13
Wind_Speed
13 11 11 10 9 10 11 6 4 4 2 1 4 7 7 6 6 7 9 10 10 10 10 10 9 10 10 9 8 6 6 4 2 2 1 1 1 1 0 1 4 3 1 2
12 9 11 10 9 10 9 7 4 5 4 1 3 4 5 2 4 7 8 10 11 11 10 10 9 9 9 8 7 6 6 4 2 3 1 0 1 2 1 1 2 1 0 1
11 7 6 8 8 9 7 6 4 4 3 2 4 3 2 3 4 6 9 10 11 12 12 11 10 9 9 8 7 6 6 5 3 2 1 2 1 2 2 1 0 1 1 2
7 6 6 8 8 9 7 5 5 6 5 2 4 2 3 5 6 7 9 10 10 10 12 11 10 9 9 8 7 7 6 4 3 2 2 4 3 3 3 2 2 2 2 3
8 8 9 9 6 7 6 6 7 9 6 4 5 2 5 7 7 8 9 10 11 10 10 9 9 9 8 8 8 8 6 4 2 1 2 3 4 4 4 5 5 4 4 4
11 8 7 9 6 5 6 5 7 9 7 5 7 3 5 7 8 9 10 10 10 10 10 9 8 9 7 7 7 7 7 5 2 0 1 2 4 5 6 6 5 4 4 3
8 7 7 9 9 3 5 4 2 2 1 6 8 2 6 9 10 11 12 11 10 10 10 10 9 9 7 6 6 6 8 5 2 1 1 2 3 5 6 5 4 4 4 4
6 4 6 8 9 7 7 5 4 5 3 4 5 4 8 10 10 10 12 12 10 11 11 11 10 9 8 7 6 5 7 4 2 0 1 1 2 4 4 5 6 6 5 4
5 4 8 11 9 8 7 6 6 6 6 2 1 6 12 11 11 11 12 14 13 12 12 11 10 9 8 7 6 6 6 4 1 1 0 3 3 3 4 5 5 5 4 6
7 7 7 8 6 5 8 10 6 5 4 2 2 1 7 11 12 12 11 12 13 12 11 10 9 8 8 7 6 6 5 3 1 2 3 2 2 3 4 5 6 6 5 6
7 7 7 4 4 6 6 7 6 6 6 4 1 2 6 11 11 12 12 12 12 11 10 9 9 8 8 7 7 6 5 4 4 3 2 1 3 4 5 5 6 6 5 6
5 6 7 6 8 8 8 8 6 5 7 5 2 3 7 8 11 11 11 11 10 9 9 10 10 9 7 6 5 5 3 3 3 3 2 2 3 3 5 6 6 6 6 6
4 4 7 6 7 9 9 9 9 7 7 6 3 2 2 4 7 9 10 11 10 9 9 9 10 8 6 5 4 3 2 2 2 1 1 1 2 3 4 5 5 6 6 6
4 7 8 7 7 9 11 11 10 9 7 5 3 2 7 6 6 7 8 9 10 10 9 8 9 8 6 5 4 3 2 1 1 0 1 2 3 3 4 5 5 6 6 7
6 9 10 10 11 12 12 11 10 10 9 8 6 6 7 6 7 7 7 8 9 10 10 9 8 8 7 6 5 4 3 2 1 1 3 3 3 3 4 5 6 6 6 8
5 7 12 14 13 13 13 11 10 10 10 8 6 2 6 6 6 6 5 6 8 9 10 10 9 9 8 6 5 4 4 3 3 3 4 3 3 4 5 5 6 6 6 6
8 8 11 13 13 14 12 10 9 8 8 7 5 3 7 6 6 6 6 6 7 9 9 9 10 9 8 7 6 5 4 4 4 4 4 4 4 5 5 7 6 6 6 7
9 8 8 12 12 14 8 4 5 5 5 5 3 5 6 5 5 6 7 7 7 7 8 8 9 10 10 8 8 6 5 5 5 4 4 4 4 5 5 5 6 6 6 7
6 7 9 11 12 11 8 5 5 5 5 4 3 2 3 4 4 6 9 9 7 6 6 7 8 9 8 9 8 7 5 5 4 4 3 4 4 5 5 6 6 6 6 7
4 7 10 11 12 10 4 2 3 5 4 5 2 4 2 0 2 2 9 9 8 7 7 7 8 7 8 7 6 6 5 4 4 3 3 3 4 5 6 7 7 7 6 7
6 10 12 12 12 5 3 1 2 2 2 5 4 3 1 1 1 3 5 6 7 8 8 8 7 7 7 6 6 5 5 4 3 3 3 4 5 5 7 7 6 6 7 8
9 9 9 7 8 3 7 4 4 3 5 8 7 5 4 2 1 4 5 6 7 8 8 8 6 7 7 7 6 6 5 4 3 4 4 5 5 7 8 6 6 6 7 8
5 4 3 1 1 2 3 3 2 2 5 8 8 6 3 3 2 1 4 6 6 7 6 7 7 7 7 7 6 6 5 4 4 5 5 6 7 7 7 8 8 8 7 8
4 4 5 3 4 6 6 4 4 5 3 6 7 7 5 4 4 3 4 5 4 4 4 4 6 7 6 6 6 6 5 4 5 6 6 6 8 9 9 8 8 7 7 6
5 2 4 2 4 6 9 7 6 6 7 9 10 10 10 7 7 5 5 4 3 2 2 2 3 3 4 5 5 6 5 6 6 7 7 8 10 11 9 9 8 8 7 7
4 4 2 3 5 4 6 6 7 7 8 10 11 11 11 10 9 8 6 5 5 4 3 2 2 0 1 3 4 4 5 5 6 7 8 9 9 8 8 7 7 9 11 11
Wind_Direction
255 253 283 298 306 304 310 326 340 323 322 101 144 160 186 204 195 133 133 126 122 121 120 118 119 120 119 119 121 121 112 109 103 81 38 27 36 338 263 145 115 108 33 13
258 252 275 295 304 302 312 322 335 306 316 14 109 107 121 141 150 144 143 135 132 130 129 130 132 133 133 133 131 133 128 124 120 98 72 166 348 308 309 48 108 140 80 354
278 277 281 293 300 305 309 313 313 287 287 70 75 68 119 158 176 150 152 151 151 147 145 147 147 144 140 139 141 127 113 105 76 62 332 4 17 286 313 348 66 73 22 339
292 292 288 291 297 306 306 321 309 291 276 253 191 193 192 186 188 176 165 161 160 150 150 152 151 147 143 144 137 123 122 113 87 37 15 354 332 330 325 341 35 25 330 298
275 272 278 283 295 307 319 349 344 340 331 288 231 190 175 193 198 186 174 171 164 157 154 155 153 148 148 151 145 137 132 123 107 28 9 337 335 339 346 354 345 338 299 270
279 281 291 298 292 294 314 344 3 3 353 302 252 222 170 182 192 186 176 174 172 162 157 155 158 151 150 155 151 143 136 132 136 281 344 342 342 340 330 320 311 308 303 302
280 296 312 307 291 270 280 291 332 348 301 256 251 206 139 161 170 170 166 167 173 166 162 164 165 159 165 166 151 139 138 144 165 230 5 9 354 322 292 288 310 325 319 324
292 298 259 254 267 271 264 260 261 283 253 237 219 151 129 134 144 155 159 164 172 174 171 176 171 166 169 162 154 143 132 133 152 224 72 10 316 303 323 4 349 324 312 322
290 276 235 244 254 275 281 273 272 292 303 310 271 122 126 135 144 156 162 166 178 181 177 176 168 170 162 154 141 128 122 126 122 2 5 242 241 277 308 313 291 295 322 313
262 277 253 239 258 262 287 297 301 297 300 309 348 232 156 158 161 164 169 173 176 178 177 167 160 158 143 135 125 123 121 124 160 263 276 310 16 321 303 298 308 304 297 296
280 289 285 273 267 275 261 276 292 305 312 326 345 283 173 177 171 172 176 179 180 180 171 157 146 134 129 138 141 138 143 161 191 217 213 295 288 300 308 300 295 299 303 304
302 297 301 315 328 328 286 273 273 279 298 296 291 138 147 166 172 175 176 173 171 165 156 148 140 133 143 152 147 144 158 189 194 199 189 224 256 283 293 297 308 312 306 299
328 306 293 312 351 338 305 283 274 270 278 291 302 140 155 203 166 161 167 164 159 156 152 146 139 142 149 149 143 153 192 200 207 195 193 235 267 281 290 296 301 301 299 295
289 275 281 279 255 236 246 255 260 263 269 285 289 210 213 200 163 156 158 159 161 157 152 152 141 143 145 147 143 176 212 215 231 47 302 280 278 283 286 291 293 294 295 293
283 276 280 274 258 247 252 254 252 255 264 270 247 223 207 184 160 156 160 164 164 158 160 158 153 147 152 154 161 183 198 189 186 276 278 281 284 285 284 284 286 286 288 291
256 283 295 289 283 282 276 265 261 263 264 263 259 231 132 140 150 151 163 176 175 172 175 168 163 157 160 168 176 182 189 184 187 229 263 273 276 276 278 280 279 282 285 288
263 265 277 284 292 293 283 279 267 266 261 258 253 185 152 169 161 158 168 188 187 181 178 171 165 160 162 170 172 180 189 196 206 220 245 258 265 274 278 290 297 297 294 288
259 270 276 276 280 277 280 277 278 270 270 268 216 169 171 163 162 161 167 182 187 183 175 163 163 162 167 169 173 181 201 203 214 225 239 253 265 279 286 287 289 289 288 286
241 248 261 269 272 274 286 311 319 304 275 270 249 158 146 149 180 180 165 167 175 180 159 152 167 171 166 172 175 178 204 218 227 238 242 260 272 282 285 285 287 290 287 286
239 229 246 259 268 277 282 322 360 336 301 353 45 77 48 153 269 143 148 163 171 160 148 158 172 165 158 168 168 177 204 222 238 252 258 265 265 270 277 279 279 281 281 283
242 236 242 258 270 276 3 91 136 262 12 353 31 69 14 333 55 122 156 161 156 150 160 169 171 162 157 160 163 184 213 229 242 262 267 266 263 263 263 263 264 270 277 283
233 242 245 255 277 298 13 19 57 45 332 325 347 8 5 8 219 185 166 147 157 162 172 172 167 163 159 162 171 193 213 224 239 252 261 265 266 274 282 279 274 269 271 278
266 292 288 145 173 117 31 9 75 44 337 329 324 338 343 318 298 170 136 141 162 164 171 173 168 170 166 168 179 203 209 214 236 251 260 265 269 266 268 269 270 268 263 268
308 342 320 325 112 121 110 79 46 44 359 328 338 357 0 359 7 46 93 117 134 154 161 168 170 177 179 180 187 202 207 212 233 248 259 265 267 265 261 253 259 265 271 275
290 265 275 295 87 91 65 45 31 13 8 7 11 13 15 21 27 45 64 86 111 124 140 154 156 177 185 185 195 208 214 217 235 249 257 266 268 268 265 260 251 254 256 261
352 15 5 63 45 52 62 37 26 21 32 29 25 27 29 28 31 42 52 60 62 63 59 67 72 241 230 215 222 225 219 220 234 253 260 269 274 277 277 277 274 249 244 247
Height
1486 1487 1486 1479 1474 1474 1473 1478 1484 1483 1477 1486 1494 1499 1499 1494 1496 1496 1500 1503 1506 1509 1512 1515 1517 1519 1521 1523 1525 1527 1529 1531 1532 1533 1534 1535 1536 1536 1537 1537 1536 1537 1537 1537
1482 1485 1478 1472 1471 1471 1473 1480 1484 1481 1477 1484 1494 1497 1496 1495 1495 1497 1500 1503 1506 1510 1513 1516 1518 1520 1522 1524 1526 1528 1529 1531 1532 1533 1534 1534 1535 1535 1536 1536 1535 1535 1535 1535
1479 1476 1471 1471 1472 1475 1475 1479 1481 1483 1480 1484 1495 1503 1500 1497 1497 1499 1501 1503 1506 1509 1513 1516 1518 1520 1522 1525 1526 1528 1529 1531 1531 1532 1533 1534 1534 1534 1535 1535 1534 1533 1533 1532
1474 1470 1471 1471 1472 1472 1478 1471 1474 1479 1486 1496 1496 1513 1505 1498 1497 1498 1500 1502 1505 1508 1512 1515 1518 1520 1523 1525 1526 1528 1529 1530 1530 1531 1531 1532 1532 1533 1533 1533 1532 1531 1530 1530
1474 1471 1471 1472 1471 1470 1472 1471 1476 1481 1489 1496 1494 1503 1504 1496 1497 1495 1497 1501 1503 1507 1511 1514 1517 1520 1523 1524 1526 1527 1527 1529 1529 1530 1530 1530 1530 1530 1530 1529 1529 1528 1528 1528
1469 1468 1469 1469 1466 1468 1468 1475 1483 1493 1503 1514 1495 1496 1503 1492 1491 1491 1494 1499 1502 1506 1510 1513 1517 1520 1522 1524 1525 1526 1526 1527 1528 1528 1528 1528 1528 1528 1527 1527 1526 1526 1526 1525
1475 1473 1473 1473 1472 1470 1472 1486 1509 1521 1529 1521 1488 1488 1492 1481 1482 1486 1492 1497 1501 1505 1509 1513 1516 1519 1521 1523 1525 1525 1526 1526 1527 1527 1527 1527 1526 1525 1525 1525 1524 1524 1523 1523
1485 1492 1481 1474 1473 1473 1471 1479 1501 1515 1516 1504 1484 1486 1481 1475 1479 1485 1490 1495 1500 1504 1507 1511 1514 1516 1519 1521 1523 1524 1524 1525 1526 1526 1525 1525 1524 1523 1523 1522 1522 1521 1520 1520
1481 1486 1473 1468 1465 1465 1470 1471 1468 1482 1489 1500 1491 1481 1478 1475 1479 1484 1489 1494 1499 1502 1505 1508 1511 1514 1516 1519 1521 1522 1523 1524 1524 1524 1524 1523 1522 1521 1521 1520 1519 1519 1518 1517
1466 1477 1467 1462 1462 1463 1465 1464 1467 1479 1494 1504 1503 1493 1487 1481 1480 1482 1486 1490 1495 1499 1502 1505 1509 1512 1515 1517 1519 1521 1521 1522 1522 1522 1522 1522 1521 1520 1519 1517 1516 1515 1514 1513
1457 1470 1468 1464 1469 1472 1470 1469 1468 1470 1474 1496 1515 1506 1476 1476 1476 1478 1483 1487 1491 1495 1499 1503 1507 1511 1514 1516 1518 1519 1520 1520 1520 1520 1519 1519 1518 1517 1516 1515 1514 1512 1511 1509
1459 1465 1474 1472 1466 1464 1464 1466 1468 1482 1482 1476 1488 1493 1466 1468 1471 1475 1479 1484 1488 1493 1497 1501 1505 1509 1512 1515 1516 1517 1518 1519 1518 1518 1517 1517 1516 1515 1513 1512 1511 1509 1507 1506
1461 1471 1484 1487 1487 1479 1474 1465 1463 1466 1470 1476 1488 1489 1468 1467 1468 1472 1477 1482 1487 1491 1496 1500 1504 1507 1511 1513 1515 1516 1516 1517 1517 1516 1516 1515 1513 1512 1511 1509 1507 1506 1504 1502
1464 1470 1481 1495 1493 1484 1478 1468 1462 1465 1474 1478 1481 1481 1471 1467 1468 1472 1476 1481 1485 1490 1494 1499 1502 1506 1509 1511 1512 1514 1514 1515 1515 1514 1513 1512 1511 1509 1508 1506 1504 1503 1501 1499
1464 1469 1468 1468 1465 1465 1464 1461 1458 1460 1462 1469 1471 1470 1467 1464 1467 1471 1475 1479 1483 1488 1493 1497 1501 1504 1507 1509 1510 1511 1512 1512 1511 1511 1510 1509 1508 1507 1505 1503 1501 1499 1498 1496
1464 1469 1468 1467 1458 1456 1456 1453 1452 1454 1454 1456 1458 1461 1458 1462 1466 1470 1474 1478 1482 1486 1491 1494 1498 1501 1504 1506 1507 1508 1509 1509 1508 1508 1507 1506 1505 1504 1502 1500 1498 1496 1494 1492
1463 1466 1472 1471 1460 1458 1463 1451 1450 1451 1448 1451 1458 1458 1457 1461 1464 1469 1473 1477 1480 1484 1488 1491 1494 1497 1500 1502 1504 1505 1506 1506 1505 1505 1504 1503 1502 1501 1499 1497 1495 1493 1490 1488
1461 1465 1468 1468 1468 1480 1457 1442 1443 1446 1446 1446 1448 1451 1454 1458 1463 1467 1471 1475 1478 1481 1485 1488 1491 1494 1497 1499 1500 1501 1502 1503 1503 1502 1502 1501 1499 1498 1496 1494 1491 1489 1487 1484
1455 1462 1467 1468 1471 1466 1453 1447 1448 1452 1451 1445 1447 1449 1453 1456 1460 1463 1467 1472 1476 1479 1482 1485 1489 1491 1494 1495 1497 1498 1499 1499 1500 1499 1498 1497 1496 1494 1492 1490 1488 1485 1483 1480
1455 1459 1465 1464 1470 1475 1460 1451 1450 1454 1459 1449 1449 1452 1455 1458 1463 1463 1466 1470 1474 1477 1480 1483 1486 1488 1490 1492 1493 1494 1495 1496 1496 1496 1495 1493 1492 1490 1488 1486 1483 1481 1479 1476
1467 1464 1463 1463 1465 1459 1454 1452 1453 1470 1470 1457 1453 1455 1457 1458 1462 1465 1466 1469 1472 1475 1478 1480 1483 1485 1486 1488 1489 1490 1491 1492 1492 1492 1490 1489 1488 1486 1484 1482 1479 1477 1474 1472
1462 1462 1461 1462 1472 1472 1459 1456 1462 1468 1462 1459 1457 1456 1457 1459 1461 1463 1465 1467 1471 1473 1475 1477 1480 1482 1483 1484 1486 1486 1487 1488 1488 1487 1486 1485 1483 1482 1480 1478 1475 1472 1470 1467
1448 1448 1450 1456 1465 1463 1462 1463 1464 1463 1462 1461 1460 1458 1458 1459 1461 1462 1463 1465 1467 1470 1472 1474 1476 1478 1480 1481 1482 1483 1483 1484 1483 1483 1482 1480 1478 1476 1475 1473 1470 1468 1466 1463
1445 1446 1449 1453 1456 1459 1462 1464 1463 1462 1462 1461 1460 1459 1459 1459 1460 1461 1462 1463 1466 1468 1470 1472 1473 1475 1477 1478 1479 1479 1479 1479 1479 1478 1477 1475 1473 1471 1469 1468 1466 1463 1461 1459
1445 1447 1450 1453 1456 1460 1462 1462 1464 1464 1463 1461 1461 1460 1460 1460 1460 1461 1461 1463 1464 1466 1468 1470 1471 1473 1474 1475 1476 1476 1476 1475 1474 1473 1472 1470 1469 1467 1465 1463 1460 1458 1456 1454
1445 1447 1450 1456 1458 1458 1462 1463 1463 1463 1463 1463 1463 1462 1462 1462 1462 1463 1463 1464 1465 1465 1467 1468 1469 1470 1472 1472 1472 1472 1472 1471 1469 1468 1467 1466 1464 1462 1460 1458 1455 1452 1451 1448